Regional Weather Roundup
Issued by NWS

Home | Current Version | Previous Version | Graphics & Text | Print | Product List | Glossary On
Versions: 1 2 3 4 5 6 7 8 9 10 11 12 13 14 15 16 17 18 19 20 21 22 23 24 25 26 27 28 29 30 31 32 33 34 35 36 37 38 39 40 41 42 43 44 45 46 47 48 49 50
000
ASUS43 KDTX 301110
RWRMI
MICHIGAN HOURLY REGIONAL WEATHER ROUNDUP
NATIONAL WEATHER SERVICE DETROIT/PONTIAC MI
600 AM EST FRI JAN 30 2015

NOTE: "FAIR" INDICATES FEW OR NO CLOUDS BELOW 12,000 FEET WITH NO
SIGNIFICANT WEATHER AND/OR OBSTRUCTION TO VISIBILITY.

MIZ047>049-052>055-059>063-066>070-074>076-081>083-301200-
SOUTHEAST LOWER MICHIGAN

CITY           SKY/WX    TMP DP  RH WIND       PRES   REMARKS
ADRIAN         CLOUDY    21  11  65 N16       30.29R
ALMA           CLOUDY    17   8  66 N13G23    30.34R
ANN ARBOR      MOCLDY    18   9  68 N15G26    30.28R
BAD AXE        CLOUDY    12   7  79 NW18      30.28R WCI  -6
DETROIT CITY   CLOUDY    20   8  60 N14G28    30.26R
DETROIT        MOCLDY    20  12  71 NW14      30.26R
FLINT          CLOUDY    17   6  62 NW18      30.30R
GROSSE ILE     CLOUDY    21  10  63 NW18G30   30.25R
HILLSDALE      FLURRIES  20  12  69 NW18G25   30.26R
HOWELL         FLURRIES  16   9  72 NW15G23   30.28R

CITY           SKY/WX    TMP DP  RH WIND       PRES   REMARKS
JACKSON        MOCLDY    19   8  62 N12G23    30.29R
LAMBERTVILLE   PTCLDY    23  12  63 N15G21    30.28R
LANSING        PTCLDY    18   7  62 N10G22    30.32R
LAPEER         NOT AVBL
MASON          PTCLDY    17   8  66 N9        30.30R
MONROE         MOCLDY    19  10  68 NW14G20   30.26R
MT. CLEMENS    CLOUDY    16   7  67 N21G28    30.24R WCI  -1
PONTIAC        MOCLDY    15   7  70 NW20G28   30.24R WCI  -2
PORT HOPE        N/A     16  10  77 NW14G28   30.26R
PORT HURON     LGT SNOW  14   9  79 NW15G23   30.25R WCI  -1
TRI CITIES     CLOUDY    16   5  62 N20       30.33R WCI  -1
YPSILANTI      PTCLDY    21   9  59 NW20G26   30.26R
$$
MIZ043>046-050>051-056>058-064>065-071>073-077>080-301200-
SOUTHWEST LOWER MICHIGAN

CITY           SKY/WX    TMP DP  RH WIND       PRES   REMARKS
BATTLE CREEK   CLOUDY    21   8  57 N16G26    30.33R
BENTON HARBOR  CLOUDY    23  16  74 N10G21    30.39R
BIG RAPIDS     FLURRIES  17  13  83 N9        30.33R
COLDWATER      LGT SNOW  20  14  75 NW17G23   30.31R
HOLLAND        MOCLDY    22   9  57 N9G22     30.39R
GRAND RAPIDS   FLURRIES  20   7  57 N17G25    30.36R
KALAMAZOO      CLOUDY    21   9  59 NW20      30.35R
MARSHALL       CLOUDY    20   8  60 NW12G18   30.30R
MUSKEGON       LGT SNOW  21  13  71 N15       30.40R
$$
MIZ016>042-301200-
NORTHERN LOWER MICHIGAN

CITY           SKY/WX    TMP DP  RH WIND       PRES   REMARKS
ALPENA         LGT SNOW   7   4  87 N10       30.35R VSB 3/4 WCI  -8
BEAVER ISLAND  CLOUDY    11   5  74 CALM      30.40R
BELLAIRE       CLOUDY    14   5  66 NW6       30.39R
CADILLAC       CLOUDY    14   7  75 N7        30.30R
CHARLEVOIX     CLOUDY    12   6  76 N10       30.42R WCI  -1
FRANKFORT      CLOUDY    19  10  69 N10G20    30.40R
GAYLORD        CLOUDY     7   1  76 VRB3      30.30R
GRAYLING       CLOUDY    10   3  72 NW10G16   30.33R WCI  -3
HARBOR SPRINGS MOCLDY     7   1  75 N3        30.39R
HOUGHTON LAKE  CLOUDY    11   3  70 N13G25    30.31R WCI  -4
MANISTEE       CLOUDY    19   7  58 N15G29    30.39R
OSCODA         CLOUDY    10   4  77 N13G20    30.31R WCI  -5
PELLSTON       CLOUDY     7   0  73 N9        30.40R
TRAVERSE CITY  CLOUDY    18   8  65 N15G23    30.37R
$$
MIZ007>008-015-301200-
EASTERN UPPER MICHIGAN

CITY           SKY/WX    TMP DP  RH WIND       PRES   REMARKS
KINROSS        PTCLDY    -2  -8  78 N9        30.39R
MACKINAC ISLAN CLOUDY     4  -2  75 N8G17     30.39R
NEWBERRY       CLOUDY     8   5  85 N6        30.37R
S. S. MARIE    CLEAR     -3 -12  65 NW9       30.40R
$$
MIZ004>006-011>014-085-301200-
CENTRAL UPPER MICHIGAN

CITY           SKY/WX    TMP DP  RH WIND       PRES   REMARKS
MANISTIQUE     CLOUDY    13   9  83 NW6       30.39R
ESCANABA       CLOUDY    12   1  62 NW9       30.44S
MENOMINEE      PTCLDY    12   0  57 N8        30.45R
SAWYER-GWINN   FLURRIES  10   4  78 NW6       30.39S
$$
MIZ001>003-009>011-084-301200-
WESTERN UPPER MICHIGAN

CITY           SKY/WX    TMP DP  RH WIND       PRES   REMARKS
IRON MOUNTAIN  CLOUDY    10   1  67 N12       30.41R WCI  -5
HOUGHTON       LGT SNOW   9   2  73 NW7       30.42R
COPPER HARBOR    N/A     12   5  73 N16G23    30.45R WCI  -5
IRONWOOD       CLOUDY    10   7  85 NW3       30.41S
$$

ABBREVIATIONS USED IN REMARKS
   TC - TEMPERATURE IN CELSIUS
  WCI - WIND CHILL INDEX
   HX - HEAT INDEX
  VSB - VISIBILITY



USA.gov is the U.S. government's official web portal to all federal, state and local government web resources and services.